User: anonymous   Login
Location: Marcé
(47.5801°N, 0.3280°W)
Time: 00:35:51
(UTC+01:00)
Language:

Explorer 11/Cluster Stage 4 - Orbit

View from above orbital plane
View from above orbital plane
View from above satellite
View from above satellite

Ground track
Ground track

The orbit data is extracted from the following two-line orbital elements,

1 00107U 61013A   21333.52317267  .00001362  00000-0  16123-3 0  9992
2 00107  28.7918  66.8956 0544781 269.0801  84.7341 14.09451220 41066
Epoch (UTC): 29 November 2021 12:33:22
Eccentricity: 0.0544781
inclination: 28.7918°
perigee height: 467 km
apogee height: 1255 km
right ascension of ascending node: 66.8956°
argument of perigee: 269.0801°
revolutions per day: 14.09451220
mean anomaly at epoch: 84.7341°
orbit number at epoch: 4106

The dashed part of the orbit path shows where the satellite is in the earth's shadow,  

DLR